date,time,water_lv
2021-10-01,00:00:00,146.88
2021-10-01,00:10:00,146.88
2021-10-01,00:20:00,146.88
2021-10-01,00:30:00,146.88
2021-10-01,00:40:00,146.88
2021-10-01,00:50:00,146.88
2021-10-01,01:00:00,146.88
2021-10-01,01:10:00,146.88
2021-10-01,01:20:00,146.88
2021-10-01,01:30:00,146.89
2021-10-01,01:40:00,146.89
2021-10-01,01:50:00,146.88
2021-10-01,02:00:00,146.89
2021-10-01,02:10:00,146.89
2021-10-01,02:20:00,146.9
2021-10-01,02:30:00,146.89
2021-10-01,02:40:00,146.89
2021-10-01,02:50:00,146.89
2021-10-01,03:00:00,146.89
2021-10-01,03:10:00,146.9
2021-10-01,03:20:00,146.9
2021-10-01,03:30:00,146.89
2021-10-01,03:40:00,146.89
2021-10-01,03:50:00,146.9
2021-10-01,04:00:00,146.9
2021-10-01,04:10:00,146.9
2021-10-01,04:20:00,146.9
2021-10-01,04:30:00,146.89
2021-10-01,04:40:00,146.9
2021-10-01,04:50:00,146.9
2021-10-01,05:00:00,146.9
2021-10-01,05:10:00,146.9
2021-10-01,05:20:00,146.91
2021-10-01,05:30:00,146.91
2021-10-01,05:40:00,146.91
2021-10-01,05:50:00,146.91
2021-10-01,06:00:00,146.91
2021-10-01,06:10:00,146.91
2021-10-01,06:20:00,146.91
2021-10-01,06:30:00,146.9
2021-10-01,06:40:00,146.92
2021-10-01,06:50:00,146.91
2021-10-01,07:00:00,146.91
2021-10-01,07:10:00,146.91
2021-10-01,07:20:00,146.92
2021-10-01,07:30:00,146.92
2021-10-01,07:40:00,146.91
2021-10-01,07:50:00,146.91
2021-10-01,08:00:00,146.91
2021-10-01,08:10:00,146.92
2021-10-01,08:20:00,146.92
2021-10-01,08:30:00,146.92
2021-10-01,08:40:00,146.93
2021-10-01,08:50:00,146.92
2021-10-01,09:00:00,146.92
2021-10-01,09:10:00,-
2021-10-01,09:20:00,146.92
2021-10-01,09:30:00,146.92
2021-10-01,09:40:00,146.92
2021-10-01,09:50:00,146.92
2021-10-01,10:00:00,146.93
2021-10-01,10:10:00,146.92
2021-10-01,10:20:00,146.92
2021-10-01,10:30:00,146.92
2021-10-01,10:40:00,146.93
2021-10-01,10:50:00,146.92
2021-10-01,11:00:00,146.93
2021-10-01,11:10:00,146.93
2021-10-01,11:20:00,146.93
2021-10-01,11:30:00,146.93
2021-10-01,11:40:00,146.93
2021-10-01,11:50:00,146.93
2021-10-01,12:00:00,146.93
2021-10-01,12:10:00,146.93
2021-10-01,12:20:00,146.93
2021-10-01,12:30:00,146.94
2021-10-01,12:40:00,146.95
2021-10-01,12:50:00,146.94
2021-10-01,13:00:00,146.94
2021-10-01,13:10:00,146.93
2021-10-01,13:20:00,146.94
2021-10-01,13:30:00,146.94
2021-10-01,13:40:00,146.94
2021-10-01,13:50:00,146.94
2021-10-01,14:00:00,-
2021-10-01,14:10:00,-
2021-10-01,14:20:00,146.94
2021-10-01,14:30:00,146.95
2021-10-01,14:40:00,-
2021-10-01,14:50:00,146.95
2021-10-01,15:00:00,146.95
2021-10-01,15:10:00,146.95
2021-10-01,15:20:00,146.95
2021-10-01,15:30:00,146.96
2021-10-01,15:40:00,146.96
2021-10-01,15:50:00,146.96
2021-10-01,16:00:00,-
2021-10-01,16:10:00,146.95
2021-10-01,16:20:00,146.96
2021-10-01,16:30:00,146.97
2021-10-01,16:40:00,146.96
2021-10-01,16:50:00,146.95
2021-10-01,17:00:00,146.96
2021-10-01,17:10:00,146.96
2021-10-01,17:20:00,146.96
2021-10-01,17:30:00,146.97
2021-10-01,17:40:00,146.98
2021-10-01,17:50:00,146.96
2021-10-01,18:00:00,146.97
2021-10-01,18:10:00,146.97
2021-10-01,18:20:00,146.97
2021-10-01,18:30:00,146.96
2021-10-01,18:40:00,146.97
2021-10-01,18:50:00,146.97
2021-10-01,19:00:00,146.97
2021-10-01,19:10:00,146.97
2021-10-01,19:20:00,146.98
2021-10-01,19:30:00,146.99
2021-10-01,19:40:00,146.97
2021-10-01,19:50:00,147
2021-10-01,20:00:00,146.99
2021-10-01,20:10:00,147
2021-10-01,20:20:00,147
2021-10-01,20:30:00,147.01
2021-10-01,20:40:00,147
2021-10-01,20:50:00,147
2021-10-01,21:00:00,146.99
2021-10-01,21:10:00,147
2021-10-01,21:20:00,147
2021-10-01,21:30:00,147
2021-10-01,21:40:00,147
2021-10-01,21:50:00,147
2021-10-01,22:00:00,147
2021-10-01,22:10:00,147
2021-10-01,22:20:00,147
2021-10-01,22:30:00,147.01
2021-10-01,22:40:00,147.01
2021-10-01,22:50:00,147.01
2021-10-01,23:00:00,147.01
2021-10-01,23:10:00,147.01
2021-10-01,23:20:00,147.01
2021-10-01,23:30:00,147.01
2021-10-01,23:40:00,147.01
2021-10-01,23:50:00,147.02
2021-10-02,00:00:00,147.01
2021-10-02,00:10:00,147.01
2021-10-02,00:20:00,147.02
2021-10-02,00:30:00,147.01
2021-10-02,00:40:00,147.02
2021-10-02,00:50:00,147.02
2021-10-02,01:00:00,147.02
2021-10-02,01:10:00,147.01
2021-10-02,01:20:00,147.02
2021-10-02,01:30:00,147.03
2021-10-02,01:40:00,147.02
2021-10-02,01:50:00,147.02
2021-10-02,02:00:00,147.03
2021-10-02,02:10:00,147.03
2021-10-02,02:20:00,147.04
2021-10-02,02:30:00,147.04
2021-10-02,02:40:00,147.03
2021-10-02,02:50:00,147.04
2021-10-02,03:00:00,147.03
2021-10-02,03:10:00,147.04
2021-10-02,03:20:00,147.04
2021-10-02,03:30:00,147.05
2021-10-02,03:40:00,147.05
2021-10-02,03:50:00,147.04
2021-10-02,04:00:00,147.04
2021-10-02,04:10:00,147.04
2021-10-02,04:20:00,147.05
2021-10-02,04:30:00,147.05
2021-10-02,04:40:00,147.05
2021-10-02,04:50:00,147.05
2021-10-02,05:00:00,147.06
2021-10-02,05:10:00,147.06
2021-10-02,05:20:00,147.06
2021-10-02,05:30:00,147.06
2021-10-02,05:40:00,147.06
2021-10-02,05:50:00,147.06
2021-10-02,06:00:00,147.06
2021-10-02,06:10:00,147.07
2021-10-02,06:20:00,147.07
2021-10-02,06:30:00,147.07
2021-10-02,06:40:00,147.07
2021-10-02,06:50:00,147.07
2021-10-02,07:00:00,147.08
2021-10-02,07:10:00,147.07
2021-10-02,07:20:00,147.08
2021-10-02,07:30:00,147.08
2021-10-02,07:40:00,147.08
2021-10-02,07:50:00,147.08
2021-10-02,08:00:00,147.08
2021-10-02,08:10:00,147.08
2021-10-02,08:20:00,147.08
2021-10-02,08:30:00,147.08
2021-10-02,08:40:00,147.08
2021-10-02,08:50:00,147.1
2021-10-02,09:00:00,147.08
2021-10-02,09:10:00,147.08
2021-10-02,09:20:00,147.08
2021-10-02,09:30:00,147.09
2021-10-02,09:40:00,147.1
2021-10-02,09:50:00,147.1
2021-10-02,10:00:00,147.1
2021-10-02,10:10:00,147.1
2021-10-02,10:20:00,147.09
2021-10-02,10:30:00,147.11
2021-10-02,10:40:00,147.1
2021-10-02,10:50:00,147.1
2021-10-02,11:00:00,147.11
2021-10-02,11:10:00,147.12
2021-10-02,11:20:00,147.11
2021-10-02,11:30:00,147.12
2021-10-02,11:40:00,147.12
2021-10-02,11:50:00,147.12
2021-10-02,12:00:00,147.13
2021-10-02,12:10:00,147.13
2021-10-02,12:20:00,147.12
2021-10-02,12:30:00,147.12
2021-10-02,12:40:00,147.13
2021-10-02,12:50:00,147.13
2021-10-02,13:00:00,147.14
2021-10-02,13:10:00,147.13
2021-10-02,13:20:00,147.14
2021-10-02,13:30:00,147.14
2021-10-02,13:40:00,147.15
2021-10-02,13:50:00,147.15
2021-10-02,14:00:00,147.15
2021-10-02,14:10:00,147.15
2021-10-02,14:20:00,147.15
2021-10-02,14:30:00,147.16
2021-10-02,14:40:00,147.16
2021-10-02,14:50:00,147.17
2021-10-02,15:00:00,147.16
2021-10-02,15:10:00,147.17
2021-10-02,15:20:00,147.17
2021-10-02,15:30:00,147.18
2021-10-02,15:40:00,147.18
2021-10-02,15:50:00,147.18
2021-10-02,16:00:00,147.18
2021-10-02,16:10:00,147.18
2021-10-02,16:20:00,147.18
2021-10-02,16:30:00,147.18
2021-10-02,16:40:00,147.19
2021-10-02,16:50:00,147.2
2021-10-02,17:00:00,147.2
2021-10-02,17:10:00,147.21
2021-10-02,17:20:00,147.21
2021-10-02,17:30:00,147.21
2021-10-02,17:40:00,147.22
2021-10-02,17:50:00,147.22
2021-10-02,18:00:00,147.22
2021-10-02,18:10:00,147.23
2021-10-02,18:20:00,147.23
2021-10-02,18:30:00,147.23
2021-10-02,18:40:00,147.24
2021-10-02,18:50:00,147.25
2021-10-02,19:00:00,147.26
2021-10-02,19:10:00,147.26
2021-10-02,19:20:00,147.27
2021-10-02,19:30:00,147.27
2021-10-02,19:40:00,147.28
2021-10-02,19:50:00,147.28
2021-10-02,20:00:00,147.29
2021-10-02,20:10:00,147.3
2021-10-02,20:20:00,147.29
2021-10-02,20:30:00,147.3
2021-10-02,20:40:00,147.29
2021-10-02,20:50:00,147.31
2021-10-02,21:00:00,147.32
2021-10-02,21:10:00,147.33
2021-10-02,21:20:00,147.33
2021-10-02,21:30:00,147.33
2021-10-02,21:40:00,147.33
2021-10-02,21:50:00,147.34
2021-10-02,22:00:00,147.35
2021-10-02,22:10:00,147.36
2021-10-02,22:20:00,147.35
2021-10-02,22:30:00,147.37
2021-10-02,22:40:00,147.36
2021-10-02,22:50:00,147.38
2021-10-02,23:00:00,147.38
2021-10-02,23:10:00,147.38
2021-10-02,23:20:00,147.39
2021-10-02,23:30:00,147.39
2021-10-02,23:40:00,147.4
2021-10-02,23:50:00,147.4
2021-10-03,00:00:00,147.41
2021-10-03,00:10:00,147.41
2021-10-03,00:20:00,147.42
2021-10-03,00:30:00,147.42
2021-10-03,00:40:00,147.43
2021-10-03,00:50:00,147.43
2021-10-03,01:00:00,147.44
2021-10-03,01:10:00,147.45
2021-10-03,01:20:00,147.44
2021-10-03,01:30:00,147.45
2021-10-03,01:40:00,147.47
2021-10-03,01:50:00,147.48
2021-10-03,02:00:00,147.48
2021-10-03,02:10:00,147.48
2021-10-03,02:20:00,147.49
2021-10-03,02:30:00,147.48
2021-10-03,02:40:00,147.5
2021-10-03,02:50:00,147.5
2021-10-03,03:00:00,147.5
2021-10-03,03:10:00,147.51
2021-10-03,03:20:00,147.53
2021-10-03,03:30:00,147.53
2021-10-03,03:40:00,147.53
2021-10-03,03:50:00,147.54
2021-10-03,04:00:00,147.54
2021-10-03,04:10:00,147.56
2021-10-03,04:20:00,147.56
2021-10-03,04:30:00,147.57
2021-10-03,04:40:00,147.56
2021-10-03,04:50:00,147.57
2021-10-03,05:00:00,147.59
2021-10-03,05:10:00,147.58
2021-10-03,05:20:00,147.59
2021-10-03,05:30:00,147.59
2021-10-03,05:40:00,147.6
2021-10-03,05:50:00,147.62
2021-10-03,06:00:00,147.62
2021-10-03,06:10:00,147.62
2021-10-03,06:20:00,147.63
2021-10-03,06:30:00,147.63
2021-10-03,06:40:00,147.64
2021-10-03,06:50:00,147.64
2021-10-03,07:00:00,147.65
2021-10-03,07:10:00,147.65
2021-10-03,07:20:00,147.66
2021-10-03,07:30:00,147.67
2021-10-03,07:40:00,147.66
2021-10-03,07:50:00,147.67
2021-10-03,08:00:00,-
2021-10-03,08:10:00,-
2021-10-03,08:20:00,147.69
2021-10-03,08:30:00,147.71
2021-10-03,08:40:00,-
2021-10-03,08:50:00,-
2021-10-03,09:00:00,147.72
2021-10-03,09:10:00,147.73
2021-10-03,09:20:00,-
2021-10-03,09:30:00,147.74
2021-10-03,09:40:00,147.75
2021-10-03,09:50:00,147.75
2021-10-03,10:00:00,147.75
2021-10-03,10:10:00,147.76
2021-10-03,10:20:00,147.76
2021-10-03,10:30:00,-
2021-10-03,10:40:00,147.78
2021-10-03,10:50:00,147.78
2021-10-03,11:00:00,147.79
2021-10-03,11:10:00,147.8
2021-10-03,11:20:00,147.8
2021-10-03,11:30:00,147.8
2021-10-03,11:40:00,147.81
2021-10-03,11:50:00,147.81
2021-10-03,12:00:00,147.82
2021-10-03,12:10:00,147.83
2021-10-03,12:20:00,147.83
2021-10-03,12:30:00,147.84
2021-10-03,12:40:00,147.85
2021-10-03,12:50:00,147.84
2021-10-03,13:00:00,147.85
2021-10-03,13:10:00,147.86
2021-10-03,13:20:00,147.86
2021-10-03,13:30:00,147.88
2021-10-03,13:40:00,147.88
2021-10-03,13:50:00,147.89
2021-10-03,14:00:00,147.9
2021-10-03,14:10:00,147.9
2021-10-03,14:20:00,147.9
2021-10-03,14:30:00,147.91
2021-10-03,14:40:00,147.91
2021-10-03,14:50:00,147.91
2021-10-03,15:00:00,147.92
2021-10-03,15:10:00,147.93
2021-10-03,15:20:00,147.93
2021-10-03,15:30:00,147.94
2021-10-03,15:40:00,147.95
2021-10-03,15:50:00,147.96
2021-10-03,16:00:00,147.96
2021-10-03,16:10:00,147.96
2021-10-03,16:20:00,147.97
2021-10-03,16:30:00,147.97
2021-10-03,16:40:00,147.98
2021-10-03,16:50:00,147.98
2021-10-03,17:00:00,-
2021-10-03,17:10:00,147.99
2021-10-03,17:20:00,148
2021-10-03,17:30:00,148
2021-10-03,17:40:00,148.02
2021-10-03,17:50:00,148.01
2021-10-03,18:00:00,148.02
2021-10-03,18:10:00,148.02
2021-10-03,18:20:00,148.04
2021-10-03,18:30:00,148.03
2021-10-03,18:40:00,148.03
2021-10-03,18:50:00,148.06
2021-10-03,19:00:00,148.06
2021-10-03,19:10:00,148.06
2021-10-03,19:20:00,148.06
2021-10-03,19:30:00,148.07
2021-10-03,19:40:00,148.08
2021-10-03,19:50:00,148.08
2021-10-03,20:00:00,148.09
2021-10-03,20:10:00,148.08
2021-10-03,20:20:00,148.09
2021-10-03,20:30:00,148.1
2021-10-03,20:40:00,148.1
2021-10-03,20:50:00,148.12
2021-10-03,21:00:00,148.13
2021-10-03,21:10:00,148.13
2021-10-03,21:20:00,148.13
2021-10-03,21:30:00,148.13
2021-10-03,21:40:00,148.14
2021-10-03,21:50:00,148.14
2021-10-03,22:00:00,148.15
2021-10-03,22:10:00,148.15
2021-10-03,22:20:00,148.16
2021-10-03,22:30:00,148.16
2021-10-03,22:40:00,148.16
2021-10-03,22:50:00,148.17
2021-10-03,23:00:00,148.19
2021-10-03,23:10:00,148.19
2021-10-03,23:20:00,148.2
2021-10-03,23:30:00,148.2
2021-10-03,23:40:00,148.21
2021-10-03,23:50:00,148.21
2021-10-04,00:00:00,148.21
2021-10-04,00:10:00,148.22
2021-10-04,00:20:00,148.23
2021-10-04,00:30:00,148.23
2021-10-04,00:40:00,148.24
2021-10-04,00:50:00,148.24
2021-10-04,01:00:00,148.25
2021-10-04,01:10:00,148.25
2021-10-04,01:20:00,148.25
2021-10-04,01:30:00,148.26
2021-10-04,01:40:00,148.25
2021-10-04,01:50:00,148.25
2021-10-04,02:00:00,148.27
2021-10-04,02:10:00,148.26
2021-10-04,02:20:00,148.26
2021-10-04,02:30:00,148.28
2021-10-04,02:40:00,148.28
2021-10-04,02:50:00,148.28
2021-10-04,03:00:00,148.3
2021-10-04,03:10:00,148.29
2021-10-04,03:20:00,148.29
2021-10-04,03:30:00,148.31
2021-10-04,03:40:00,148.31
2021-10-04,03:50:00,148.31
2021-10-04,04:00:00,148.31
2021-10-04,04:10:00,148.32
2021-10-04,04:20:00,148.33
2021-10-04,04:30:00,148.32
2021-10-04,04:40:00,148.33
2021-10-04,04:50:00,148.33
2021-10-04,05:00:00,148.34
2021-10-04,05:10:00,148.34
2021-10-04,05:20:00,148.35
2021-10-04,05:30:00,148.35
2021-10-04,05:40:00,148.36
2021-10-04,05:50:00,148.36
2021-10-04,06:00:00,148.36
2021-10-04,06:10:00,148.36
2021-10-04,06:20:00,148.38
2021-10-04,06:30:00,148.37
2021-10-04,06:40:00,148.38
2021-10-04,06:50:00,148.38
2021-10-04,07:00:00,148.39
2021-10-04,07:10:00,148.39
2021-10-04,07:20:00,148.4
2021-10-04,07:30:00,148.4
2021-10-04,07:40:00,148.41
2021-10-04,07:50:00,148.4
2021-10-04,08:00:00,148.41
2021-10-04,08:10:00,148.41
2021-10-04,08:20:00,148.42
2021-10-04,08:30:00,148.43
2021-10-04,08:40:00,148.43
2021-10-04,08:50:00,148.44
2021-10-04,09:00:00,148.43
2021-10-04,09:10:00,148.45
2021-10-04,09:20:00,-
2021-10-04,09:30:00,148.45
2021-10-04,09:40:00,148.45
2021-10-04,09:50:00,148.46
2021-10-04,10:00:00,148.46
2021-10-04,10:10:00,148.47
2021-10-04,10:20:00,148.47
2021-10-04,10:30:00,148.47
2021-10-04,10:40:00,148.49
2021-10-04,10:50:00,148.48
2021-10-04,11:00:00,148.48
2021-10-04,11:10:00,148.49
2021-10-04,11:20:00,148.5
2021-10-04,11:30:00,148.51
2021-10-04,11:40:00,148.51
2021-10-04,11:50:00,148.51
2021-10-04,12:00:00,148.52
2021-10-04,12:10:00,148.52
2021-10-04,12:20:00,148.52
2021-10-04,12:30:00,148.52
2021-10-04,12:40:00,148.53
2021-10-04,12:50:00,148.53
2021-10-04,13:00:00,148.54
2021-10-04,13:10:00,148.56
2021-10-04,13:20:00,148.56
2021-10-04,13:30:00,148.57
2021-10-04,13:40:00,148.56
2021-10-04,13:50:00,148.58
2021-10-04,14:00:00,148.58
2021-10-04,14:10:00,-
2021-10-04,14:20:00,148.59
2021-10-04,14:30:00,148.59
2021-10-04,14:40:00,148.61
2021-10-04,14:50:00,148.6
2021-10-04,15:00:00,148.6
2021-10-04,15:10:00,148.6
2021-10-04,15:20:00,148.61
2021-10-04,15:30:00,148.62
2021-10-04,15:40:00,148.63
2021-10-04,15:50:00,148.64
2021-10-04,16:00:00,-
2021-10-04,16:10:00,148.64
2021-10-04,16:20:00,148.64
2021-10-04,16:30:00,148.65
2021-10-04,16:40:00,148.67
2021-10-04,16:50:00,148.67
2021-10-04,17:00:00,148.67
2021-10-04,17:10:00,-
2021-10-04,17:20:00,148.68
2021-10-04,17:30:00,148.68
2021-10-04,17:40:00,148.68
2021-10-04,17:50:00,148.7
2021-10-04,18:00:00,148.7
2021-10-04,18:10:00,148.71
2021-10-04,18:20:00,148.72
2021-10-04,18:30:00,148.72
2021-10-04,18:40:00,148.73
2021-10-04,18:50:00,148.74
2021-10-04,19:00:00,148.74
2021-10-04,19:10:00,148.76
2021-10-04,19:20:00,148.76
2021-10-04,19:30:00,148.77
2021-10-04,19:40:00,148.78
2021-10-04,19:50:00,148.78
2021-10-04,20:00:00,148.8
2021-10-04,20:10:00,148.79
2021-10-04,20:20:00,148.81
2021-10-04,20:30:00,148.82
2021-10-04,20:40:00,148.82
2021-10-04,20:50:00,148.83
2021-10-04,21:00:00,148.84
2021-10-04,21:10:00,148.84
2021-10-04,21:20:00,148.85
2021-10-04,21:30:00,148.86
2021-10-04,21:40:00,148.86
2021-10-04,21:50:00,148.87
2021-10-04,22:00:00,148.88
2021-10-04,22:10:00,148.88
2021-10-04,22:20:00,148.89
2021-10-04,22:30:00,148.9
2021-10-04,22:40:00,148.91
2021-10-04,22:50:00,148.91
2021-10-04,23:00:00,148.92
2021-10-04,23:10:00,148.93
2021-10-04,23:20:00,148.93
2021-10-04,23:30:00,148.94
2021-10-04,23:40:00,148.96
2021-10-04,23:50:00,148.96
2021-10-05,00:00:00,148.96
2021-10-05,00:10:00,148.97
2021-10-05,00:20:00,148.97
2021-10-05,00:30:00,148.98
2021-10-05,00:40:00,148.99
2021-10-05,00:50:00,149
2021-10-05,01:00:00,149
2021-10-05,01:10:00,149.01
2021-10-05,01:20:00,149.01
2021-10-05,01:30:00,149.02
2021-10-05,01:40:00,149.03
2021-10-05,01:50:00,149.04
2021-10-05,02:00:00,149.05
2021-10-05,02:10:00,149.05
2021-10-05,02:20:00,149.05
2021-10-05,02:30:00,149.06
2021-10-05,02:40:00,149.07
2021-10-05,02:50:00,149.08
2021-10-05,03:00:00,149.08
2021-10-05,03:10:00,149.09
2021-10-05,03:20:00,149.1
2021-10-05,03:30:00,149.1
2021-10-05,03:40:00,149.1
2021-10-05,03:50:00,149.11
2021-10-05,04:00:00,149.11
2021-10-05,04:10:00,149.11
2021-10-05,04:20:00,149.11
2021-10-05,04:30:00,149.13
2021-10-05,04:40:00,149.13
2021-10-05,04:50:00,149.13
2021-10-05,05:00:00,149.14
2021-10-05,05:10:00,149.14
2021-10-05,05:20:00,149.15
2021-10-05,05:30:00,149.15
2021-10-05,05:40:00,149.17
2021-10-05,05:50:00,149.16
2021-10-05,06:00:00,149.17
2021-10-05,06:10:00,149.17
2021-10-05,06:20:00,149.18
2021-10-05,06:30:00,149.18
2021-10-05,06:40:00,149.19
2021-10-05,06:50:00,149.19
2021-10-05,07:00:00,149.19
2021-10-05,07:10:00,149.2
2021-10-05,07:20:00,149.2
2021-10-05,07:30:00,149.2
2021-10-05,07:40:00,149.21
2021-10-05,07:50:00,149.22
2021-10-05,08:00:00,149.2
2021-10-05,08:10:00,149.23
2021-10-05,08:20:00,149.22
2021-10-05,08:30:00,149.22
2021-10-05,08:40:00,149.22
2021-10-05,08:50:00,149.22
2021-10-05,09:00:00,149.23
2021-10-05,09:10:00,149.24
2021-10-05,09:20:00,149.23
2021-10-05,09:30:00,149.24
2021-10-05,09:40:00,149.25
2021-10-05,09:50:00,149.24
2021-10-05,10:00:00,149.25
2021-10-05,10:10:00,149.24
2021-10-05,10:20:00,149.25
2021-10-05,10:30:00,149.26
2021-10-05,10:40:00,149.26
2021-10-05,10:50:00,149.27
2021-10-05,11:00:00,149.27
2021-10-05,11:10:00,149.26
2021-10-05,11:20:00,149.26
2021-10-05,11:30:00,149.26
2021-10-05,11:40:00,149.28
2021-10-05,11:50:00,149.28
2021-10-05,12:00:00,149.28
2021-10-05,12:10:00,149.29
2021-10-05,12:20:00,149.29
2021-10-05,12:30:00,149.29
2021-10-05,12:40:00,149.29
2021-10-05,12:50:00,149.3
2021-10-05,13:00:00,149.3
2021-10-05,13:10:00,149.29
2021-10-05,13:20:00,149.31
2021-10-05,13:30:00,149.3
2021-10-05,13:40:00,149.3
2021-10-05,13:50:00,149.3
2021-10-05,14:00:00,149.31
2021-10-05,14:10:00,149.31
2021-10-05,14:20:00,149.31
2021-10-05,14:30:00,149.32
2021-10-05,14:40:00,149.31
2021-10-05,14:50:00,149.32
2021-10-05,15:00:00,149.32
2021-10-05,15:10:00,149.32
2021-10-05,15:20:00,149.33
2021-10-05,15:30:00,149.33
2021-10-05,15:40:00,149.33
2021-10-05,15:50:00,149.34
2021-10-05,16:00:00,149.33
2021-10-05,16:10:00,149.33
2021-10-05,16:20:00,149.33
2021-10-05,16:30:00,149.34
2021-10-05,16:40:00,149.34
2021-10-05,16:50:00,149.34
2021-10-05,17:00:00,149.34
2021-10-05,17:10:00,149.35
2021-10-05,17:20:00,149.35
2021-10-05,17:30:00,149.34
2021-10-05,17:40:00,149.35
2021-10-05,17:50:00,149.35
2021-10-05,18:00:00,149.36
2021-10-05,18:10:00,149.36
2021-10-05,18:20:00,149.35
2021-10-05,18:30:00,149.35
2021-10-05,18:40:00,149.36
2021-10-05,18:50:00,149.36
2021-10-05,19:00:00,149.36
2021-10-05,19:10:00,149.36
2021-10-05,19:20:00,149.36
2021-10-05,19:30:00,149.36
2021-10-05,19:40:00,149.37
2021-10-05,19:50:00,149.37
2021-10-05,20:00:00,149.37
2021-10-05,20:10:00,149.37
2021-10-05,20:20:00,149.38
2021-10-05,20:30:00,149.38
2021-10-05,20:40:00,149.38
2021-10-05,20:50:00,149.39
2021-10-05,21:00:00,149.38
2021-10-05,21:10:00,149.38
2021-10-05,21:20:00,149.38
2021-10-05,21:30:00,149.38
2021-10-05,21:40:00,149.39
2021-10-05,21:50:00,149.39
2021-10-05,22:00:00,149.39
2021-10-05,22:10:00,149.39
2021-10-05,22:20:00,149.39
2021-10-05,22:30:00,149.4
2021-10-05,22:40:00,149.41
2021-10-05,22:50:00,149.4
2021-10-05,23:00:00,149.41
2021-10-05,23:10:00,149.4
2021-10-05,23:20:00,149.4
2021-10-05,23:30:00,149.4
2021-10-05,23:40:00,149.41
2021-10-05,23:50:00,149.42
2021-10-06,00:00:00,149.41
2021-10-06,00:10:00,149.41
2021-10-06,00:20:00,149.41
2021-10-06,00:30:00,149.42
2021-10-06,00:40:00,149.43
2021-10-06,00:50:00,149.43
2021-10-06,01:00:00,149.42
2021-10-06,01:10:00,149.44
2021-10-06,01:20:00,149.44
2021-10-06,01:30:00,149.43
2021-10-06,01:40:00,149.44
2021-10-06,01:50:00,149.46
2021-10-06,02:00:00,149.45
2021-10-06,02:10:00,149.46
2021-10-06,02:20:00,149.46
2021-10-06,02:30:00,149.46
2021-10-06,02:40:00,149.47
2021-10-06,02:50:00,149.47
2021-10-06,03:00:00,149.47
2021-10-06,03:10:00,149.48
2021-10-06,03:20:00,149.47
2021-10-06,03:30:00,149.48
2021-10-06,03:40:00,149.49
2021-10-06,03:50:00,149.5
2021-10-06,04:00:00,149.49
2021-10-06,04:10:00,149.49
2021-10-06,04:20:00,149.5
2021-10-06,04:30:00,149.51
2021-10-06,04:40:00,149.51
2021-10-06,04:50:00,149.52
2021-10-06,05:00:00,149.51
2021-10-06,05:10:00,149.51
2021-10-06,05:20:00,149.53
2021-10-06,05:30:00,149.53
2021-10-06,05:40:00,149.54
2021-10-06,05:50:00,149.54
2021-10-06,06:00:00,149.54
2021-10-06,06:10:00,149.55
2021-10-06,06:20:00,149.56
2021-10-06,06:30:00,149.56
2021-10-06,06:40:00,149.57
2021-10-06,06:50:00,149.57
2021-10-06,07:00:00,149.59
2021-10-06,07:10:00,149.59
2021-10-06,07:20:00,149.59
2021-10-06,07:30:00,149.59
2021-10-06,07:40:00,149.6
2021-10-06,07:50:00,149.61
2021-10-06,08:00:00,149.63
2021-10-06,08:10:00,149.62
2021-10-06,08:20:00,149.63
2021-10-06,08:30:00,149.65
2021-10-06,08:40:00,149.65
2021-10-06,08:50:00,149.65
2021-10-06,09:00:00,-
2021-10-06,09:10:00,149.68
2021-10-06,09:20:00,149.68
2021-10-06,09:30:00,149.69
2021-10-06,09:40:00,149.71
2021-10-06,09:50:00,149.71
2021-10-06,10:00:00,149.72
2021-10-06,10:10:00,149.73
2021-10-06,10:20:00,149.73
2021-10-06,10:30:00,149.74
2021-10-06,10:40:00,149.75
2021-10-06,10:50:00,149.75
2021-10-06,11:00:00,149.76
2021-10-06,11:10:00,149.77
2021-10-06,11:20:00,149.78
2021-10-06,11:30:00,149.8
2021-10-06,11:40:00,149.81
2021-10-06,11:50:00,149.8
2021-10-06,12:00:00,149.81
2021-10-06,12:10:00,149.82
2021-10-06,12:20:00,149.82
2021-10-06,12:30:00,149.83
2021-10-06,12:40:00,149.83
2021-10-06,12:50:00,149.84
2021-10-06,13:00:00,149.85
2021-10-06,13:10:00,149.86
2021-10-06,13:20:00,149.88
2021-10-06,13:30:00,149.87
2021-10-06,13:40:00,149.88
2021-10-06,13:50:00,149.88
2021-10-06,14:00:00,149.9
2021-10-06,14:10:00,149.91
2021-10-06,14:20:00,149.9
2021-10-06,14:30:00,149.93
2021-10-06,14:40:00,149.92
2021-10-06,14:50:00,149.93
2021-10-06,15:00:00,-
2021-10-06,15:10:00,149.94
2021-10-06,15:20:00,149.94
2021-10-06,15:30:00,149.94
2021-10-06,15:40:00,149.95
2021-10-06,15:50:00,149.97
2021-10-06,16:00:00,-
2021-10-06,16:10:00,-
2021-10-06,16:20:00,149.98
2021-10-06,16:30:00,149.98
2021-10-06,16:40:00,149.99
2021-10-06,16:50:00,149.99
2021-10-06,17:00:00,150
2021-10-06,17:10:00,150.01
2021-10-06,17:20:00,150.01
2021-10-06,17:30:00,150.01
2021-10-06,17:40:00,150.01
2021-10-06,17:50:00,150.01
2021-10-06,18:00:00,150.02
2021-10-06,18:10:00,150.02
2021-10-06,18:20:00,150.02
2021-10-06,18:30:00,150.03
2021-10-06,18:40:00,150.03
2021-10-06,18:50:00,150.03
2021-10-06,19:00:00,150.04
2021-10-06,19:10:00,150.05
2021-10-06,19:20:00,150.05
2021-10-06,19:30:00,150.05
2021-10-06,19:40:00,150.06
2021-10-06,19:50:00,150.07
2021-10-06,20:00:00,150.07
2021-10-06,20:10:00,150.08
2021-10-06,20:20:00,150.08
2021-10-06,20:30:00,150.09
2021-10-06,20:40:00,150.09
2021-10-06,20:50:00,150.1
2021-10-06,21:00:00,150.1
2021-10-06,21:10:00,150.1
2021-10-06,21:20:00,150.11
2021-10-06,21:30:00,150.11
2021-10-06,21:40:00,150.11
2021-10-06,21:50:00,150.12
2021-10-06,22:00:00,150.13
2021-10-06,22:10:00,150.14
2021-10-06,22:20:00,150.14
2021-10-06,22:30:00,150.15
2021-10-06,22:40:00,150.16
2021-10-06,22:50:00,150.16
2021-10-06,23:00:00,150.18
2021-10-06,23:10:00,150.19
2021-10-06,23:20:00,150.2
2021-10-06,23:30:00,150.21
2021-10-06,23:40:00,150.22
2021-10-06,23:50:00,150.23
2021-10-07,00:00:00,150.25
2021-10-07,00:10:00,150.25
2021-10-07,00:20:00,150.27
2021-10-07,00:30:00,150.28
2021-10-07,00:40:00,150.29
2021-10-07,00:50:00,150.29
2021-10-07,01:00:00,150.3
2021-10-07,01:10:00,150.31
2021-10-07,01:20:00,150.32
2021-10-07,01:30:00,150.33
2021-10-07,01:40:00,150.35
2021-10-07,01:50:00,150.35
2021-10-07,02:00:00,150.36
2021-10-07,02:10:00,150.36
2021-10-07,02:20:00,150.37
2021-10-07,02:30:00,150.38
2021-10-07,02:40:00,150.39
2021-10-07,02:50:00,150.4
2021-10-07,03:00:00,150.41
2021-10-07,03:10:00,150.41
2021-10-07,03:20:00,150.42
2021-10-07,03:30:00,150.43
2021-10-07,03:40:00,150.44
2021-10-07,03:50:00,150.45
2021-10-07,04:00:00,150.46
2021-10-07,04:10:00,150.46
2021-10-07,04:20:00,150.47
2021-10-07,04:30:00,150.47
2021-10-07,04:40:00,150.48
2021-10-07,04:50:00,150.5
2021-10-07,05:00:00,150.5
2021-10-07,05:10:00,150.51